Regional Weather Roundup
Issued by NWS

Home | Current Version | Previous Version | Graphics & Text | Print | Product List | Glossary On
Versions: 1 2 3 4 5 6 7 8 9 10 11 12 13 14 15 16 17 18 19 20 21 22 23 24 25 26 27 28 29 30 31 32 33 34 35 36 37 38 39 40 41 42 43 44 45 46 47 48 49 50
000
ASUS45 KABQ 270710
RWRNM
WEATHER ROUNDUP FOR NEW MEXICO
NATIONAL WEATHER SERVICE ALBUQUERQUE NM
1200 AM MST SAT DEC 27 2014

NOTE: "FAIR" MEANS FEW OR NO CLOUDS BELOW 12,000 FEET AGL WITH NO
       SIGNIFICANT WEATHER OR OBSTRUCTIONS TO VISION.

      THIS PRODUCT IS RELEASED AS TWO VERSIONS.  ONE VERSION NEAR
      THE TOP OF THE HOUR CONTAINING PRELIMINARY DATA FROM ALBUQUERQUE
      AND OTHER STATIONS.  A FINAL VERSION WITH ADDITIONAL DATA IS
      ISSUED ABOUT 10 MINUTES AFTER THE HOUR.

NMZ501-503-504-510>518-270800-
NORTHWEST PLATEAU/NORTHCENTRAL MOUNTAINS

CITY           SKY/WX    TMP DP  RH WIND       PRES   REMARKS
FARMINGTON     CLEAR     10   6  84 CALM      30.06R
LOS ALAMOS     CLEAR     19  12  74 NW5       30.01S WCI  12
SANTA FE       PTCLDY    11   5  77 NE8       30.02S WCI  -1
TAOS           PTCLDY     1  -2  85 CALM      30.01F
ANGEL FIRE     FLURRIES   8   4  84 CALM      29.96S

$$
NMZ402-403-502-505>509-270800-
WESTCENTRAL MOUNTAINS/SOUTHWEST MOUNTAINS

CITY           SKY/WX    TMP DP  RH WIND       PRES   REMARKS
GALLUP         PTCLDY    -3  -6  87 NE7       30.05S WCI -16
GRANTS         CLEAR     10   6  82 NW5       30.06S WCI   2
SILVER CITY    CLEAR     25   9  50 N3        30.05R

$$
NMZ407-409-411-412-270800-
SOUTHERN DESERTS

CITY           SKY/WX    TMP DP  RH WIND       PRES   REMARKS
LORDSBURG      FAIR      28  18  64 SW9       30.05R WCI  20
DEMING         MOCLDY    32  16  51 NW6       30.05S WCI  26
LAS CRUCES     CLOUDY    33  32  95 S6        30.07R WCI  28
HOLLOMAN AFB   PTCLDY    32  28  83 E2        30.06R
ALAMOGORDO     MOCLDY    34  27  75 CALM      30.07R
T OR C         CLEAR     26   8  46 CALM      30.05S

$$
NMZ519>523-270800-
CENTRAL VALLEYS/CENTRAL HIGHLANDS

CITY           SKY/WX    TMP DP  RH WIND       PRES   REMARKS
ALBUQUERQUE    CLEAR     21  13  71 S3        30.07R
DOUBLE EAGLE   CLEAR     19  11  70 NW9       30.06S WCI   9
MORIARTY ARPT  FAIR       0  -4  82 CALM      30.06S
CLINES CORNERS MOCLDY    11   5  77 W6        29.98F WCI   1
BELEN          FAIR      18  12  77 N6        30.08S WCI  10
SOCORRO        FAIR      24  10  56 N5        30.07F WCI  18

$$
NMZ524>526-539-540-270800-
SOUTHCENTRAL MOUNTAINS

CITY           SKY/WX    TMP DP  RH WIND       PRES   REMARKS
RUIDOSO        PTCLDY    21   1  42 W9        30.05R WCI  11

$$
NMZ527>531-270800-
NORTHEAST HIGHLANDS/NORTHEAST PLAINS

CITY           SKY/WX    TMP DP  RH WIND       PRES   REMARKS
LAS VEGAS      FOG       15  11  83 CALM      29.99F VSB 3/4
RATON          CLOUDY    14  10  84 CALM      30.00F
CLAYTON        PTCLDY    13   9  84 NW8       30.07S WCI   2

$$
NMZ532>537-270800-
EASTCENTRAL PLAINS

CITY           SKY/WX    TMP DP  RH WIND       PRES   REMARKS
TUCUMCARI      MOCLDY    13  10  88 N6        30.11S FOG     WCI   4
CANNON AFB     CLOUDY    25  21  84 E5        30.09R WCI  19
CLOVIS AIRPORT CLOUDY    25  19  80 NE8       30.09R WCI  16

$$
NMZ028-029-538-270800-
SOUTHEAST PLAINS

CITY           SKY/WX    TMP DP  RH WIND       PRES   REMARKS
ROSWELL        CLOUDY    34  26  72 N9        30.10R WCI  27
ARTESIA        CLOUDY    39  30  70 NW10      30.10S WCI  32
CARLSBAD       CLOUDY    39  36  89 SE5       30.06S
HOBBS          LGT RAIN  32  32 100 NE10      30.09S WCI  24


$$


USA.gov is the U.S. government's official web portal to all federal, state and local government web resources and services.